TIME,DELAY(SENSOR),PRES,T(CTD),SAL,OXYGEN,RAWTEMP,T(OPTODE),TCPHASE,FLUOR,BETA(BETA700),BETA(BETA412),BETA(BETA440),CDOM,C(CSC),ED(ED412.40),ED(ED444.00),ED(ED489.70),ED(ED554.30),LU(LU411.80),LU(LU443.40),LU(LU489.60),LU(LU554.10),COMP,TILTX,TILTX(TILTY),CHECK
1371419103,5807,497.9599914550781000,6.2926998138427730,34.1347007751464840,65.5965881347656200,609.6547241210938000,6.2719359397888180,50.8092689514160160,53,103,90,79,79,14813,2147749312,2147428470,2148005586,2147874185,2147631168,2147064713,2148245229,2147198089,2604,4,13,41312
1371419244,5808,486.7999877929687500,6.3776001930236820,34.1254997253418000,71.0917434692382800,606.9199829101562000,6.3604969978332520,50.0824012756347660,51,104,90,80,78,14808,2147749549,2147426358,2148005997,2147877266,2147630262,2147066889,2148248438,2147198354,2206,4,13,47482
1371419383,5810,475.3399963378906000,6.6614999771118160,34.1212005615234400,79.2540588378906200,598.2158813476562000,6.6418862342834470,48.9700889587402340,51,104,83,79,78,14814,2147744886,2147426916,2148008320,2147870747,2147631497,2147064502,2148243328,2147194294,2276,4,13,16232
1371419512,5808,464.0700073242187500,6.7618999481201170,34.0974006652832000,87.5815505981445300,595.1851806640625000,6.7396931648254395,47.9675407409668000,51,104,88,81,79,14814,2147744576,2147424896,2148005942,2147874185,2147627968,2147068635,2148246948,2147201252,2650,4,13,17129
1371419627,5811,453.3599853515625000,6.9376001358032230,34.0946998596191400,93.8174667358398400,589.8228149414062000,6.9125370979309080,47.1984100341796900,51,104,89,81,77,14810,2147741686,2147428461,2148010148,2147872082,2147626441,2147073636,2148246144,2147201097,2639,4,13,26881
1371419742,5810,442.1600036621094000,7.1564002037048340,34.0886993408203100,100.2617034912109400,583.0925903320312000,7.1290950775146480,46.4011383056640600,51,103,86,79,77,14809,2147744036,2147425124,2148006838,2147874477,2147629686,2147070116,2148241929,2147199798,2635,4,13,38220
1371419859,5807,430.9400024414062500,7.3281998634338380,34.0992012023925800,105.2309036254882800,577.4849853515625000,7.3092160224914550,45.7968788146972660,51,107,84,79,76,14809,2147745069,2147425865,2148005686,2147874176,2147626148,2147077321,2148235958,2147196635,2708,4,13,19073
1371419974,5808,420.3200073242187500,7.4282999038696290,34.1011009216308600,107.3635025024414000,574.3311767578125000,7.4103951454162600,45.5284614562988300,51,106,86,80,76,14814,2147743990,2147430052,2148006262,2147872320,2147628105,2147075346,2148239168,2147200100,3536,4,13,48726
1371420103,5807,410.3099975585937500,7.7209000587463380,34.1022987365722660,113.9163970947265600,565.2338256835938000,7.7017569541931150,44.7247810363769500,51,106,85,80,76,14811,2147741659,2147423387,2148004662,2147873618,2147623076,2147080155,2148234230,2147200649,3139,3,13,55104
1371420302,5807,399.4299926757812500,8.0797004699707030,34.1008987426757800,124.4067993164062500,554.2490234375000000,8.0526237487792970,43.5382499694824200,50,105,87,80,74,14811,2147742336,2147425581,2148003355,2147874898,2147621293,2147072914,2148235693,2147200905,1682,3,13,21317
1371420510,5807,387.4500122070312500,8.4954004287719730,34.0966987609863300,139.6907958984375000,540.8491210937500000,8.4792633056640620,41.9424209594726560,50,105,87,79,74,14808,2147741074,2147427547,2148006582,2147871323,2147619894,2147082066,2148234843,2147198016,3458,4,13,57069
1371420649,5809,376.2399902343750000,8.7906999588012700,34.0989990234375000,152.2951049804687500,531.5861206054688000,8.7733459472656250,40.7354087829589840,50,106,89,80,74,14808,2147736877,2147426916,2148003428,2147874413,2147619026,2147084169,2148229312,2147201124,2186,4,13,18769
1371420774,5808,363.8200073242187500,9.0460996627807620,34.1004981994628900,158.2388000488281200,523.3013916015625000,9.0358047485351560,40.1238594055175800,50,104,85,80,73,14809,2147738267,2147427913,2148004882,2147874706,2147618861,2147090075,2148230464,2147201499,1921,4,13,14501
1371420877,5808,352.5499877929687500,9.3547000885009770,34.1057014465332000,170.9649047851562500,513.4038696289062000,9.3486747741699220,38.9983100891113300,50,106,88,80,73,14807,2147735561,2147428553,2148004544,2147873280,2147616896,2147088493,2148231122,2147200749,1206,4,13,19084
1371420980,5811,341.5700073242187500,9.5207996368408200,34.1099014282226560,177.2113952636718800,508.1960144042969000,9.5130147933959960,38.4631118774414060,50,107,85,80,71,14806,2147733202,2147429558,2148008850,2147871844,2147615552,2147088457,2148229613,2147202797,196,3,13,37209
1371421099,5807,330.9100036621094000,9.9296998977661130,34.1101989746093750,186.5003967285156200,495.6210937500000000,9.9090309143066400,37.6147117614746100,49,107,89,81,71,14805,2147734875,2147427117,2148009444,2147870491,2147614692,2147101769,2148231506,2147202267,699,4,13,61591
1371421274,5811,319.7300109863281000,10.2250995635986330,34.1152000427246100,193.4539947509765600,486.2582092285156000,10.2031898498535160,37.0037498474121100,49,112,85,79,71,14802,2147732361,2147428562,2148010605,2147873636,2147613147,2147098980,2148232155,2147204178,2843,4,14,63723
1371421430,5811,307.7200012207031000,10.6569004058837890,34.1310997009277340,197.3715972900390600,472.1932983398437500,10.6439800262451170,36.5207710266113300,50,105,86,79,70,14808,2147734793,2147427483,2148012928,2147875254,2147609161,2147094262,2148226898,2147202477,3041,3,13,23693
1371421557,5809,296.3299865722656000,11.1499004364013670,34.1514015197753900,204.9631958007812500,455.7867126464844000,11.1566095352172850,35.7862701416015600,49,106,90,80,68,14803,2147730102,2147429568,2148017005,2147869778,2147605997,2147110820,2148222326,2147206592,2010,3,13,18793
1371421674,5807,285.5199890136719000,11.6546001434326170,34.1657981872558600,205.5753936767578000,440.0555114746094000,11.6466703414917000,35.4942893981933600,49,106,87,80,69,14802,2147733595,2147429833,2148011949,2147871744,2147603456,2147111798,2148221184,2147203501,2136,3,13,14636
1371421801,5810,274.0199890136719000,12.1099996566772460,34.1907005310058600,209.6896972656250000,425.4104919433594000,12.1016798019409180,35.0185585021972660,48,104,87,81,68,14808,2147727570,2147438244,2148030893,2147873590,2147600493,2147115200,2148227081,2147206573,2390,3,13,65502
1371421928,5810,263.7900085449219000,12.4940996170043950,34.1943016052246100,209.6967010498047000,413.2474975585937500,12.4787502288818360,34.8260803222656250,49,106,86,80,68,14802,2147728374,2147441170,2148048201,2147875300,2147602806,2147117613,2148225353,2147204105,788,3,14,51399
1371422081,5808,253.0599975585937500,13.1703996658325200,34.2309989929199200,207.7843933105468800,391.8316040039062500,13.1410102844238280,34.6022300720214840,49,105,86,79,67,14802,2147722002,2147444507,2148053686,2147872749,2147597257,2147123264,2148231872,2147204214,2970,3,14,61441
1371422256,5811,242.0299987792968800,13.6656999588012700,34.2638015747070300,208.0787048339843800,368.6854858398437500,13.8546199798583980,34.2299118041992200,49,104,86,80,67,14799,2147723254,2147454198,2148089152,2147873938,2147596096,2147137490,2148240192,2147208320,1480,3,14,42507
1371422404,5809,230.7500000000000000,14.5923995971679690,34.3431015014648440,210.2292022705078000,345.6520996093750000,14.5628499984741210,33.7583999633789060,50,105,88,80,66,14797,2147721188,2147443556,2148054976,2147874587,2147588836,2147134628,2148222409,2147208777,808,3,14,30741
1371422543,5808,219.5299987792968800,15.2741003036499020,34.3927993774414060,207.5702056884765600,322.9128112792969000,15.2604904174804690,33.5724296569824200,50,106,86,79,66,14790,2147724726,2147483236,2148176896,2147872941,2147587885,2147160512,2148278217,2147215817,2936,3,14,16558
1371422689,5808,207.6799926757812500,15.6660995483398440,34.4421997070312500,208.0175018310547000,309.8114929199219000,15.6618499755859380,33.3539085388183600,50,105,85,81,66,14797,2147725641,2147512960,2148248466,2147875520,2147589321,2147191634,2148303762,2147215314,2033,3,14,28454
1371422804,5807,196.6300048828125000,16.4813003540039060,34.5513992309570300,210.1602935791015600,283.0280151367187500,16.4813194274902340,32.8443603515625000,54,110,89,80,65,14788,2147726445,2147523172,2148260790,2147870418,2147586688,2147193664,2148313627,2147216265,2372,3,13,29615
1371422859,5809,191.2200012207031200,16.6163005828857420,34.5774993896484400,211.6855926513672000,277.9042053222656000,16.6379604339599600,32.6856498718261700,55,111,87,79,65,14776,2147733238,2147556992,2148340598,2147871021,2147586733,2147213750,2148350409,2147218514,2081,3,13,50580
1371422914,5808,185.8399963378906200,16.7672004699707030,34.6021995544433600,212.6654052734375000,273.5286865234375000,16.7716999053955080,32.5691795349121100,56,109,88,80,66,14780,2147741165,2147590518,2148416841,2147873024,2147585947,2147237321,2148386395,2147219483,1118,3,14,29972
1371422989,5809,178.9299926757812500,17.3022003173828120,34.6755981445312500,212.9754943847656200,255.7243957519531200,17.3156890869140620,32.2997512817382800,62,114,89,82,64,14775,2147758976,2147656246,2148562340,2147874240,2147594249,2147273545,2148452763,2147224822,843,3,14,52279
1371423044,5807,174.3000030517578000,17.6760997772216800,34.7350997924804700,213.9304962158203000,243.9956054687500000,17.6739292144775400,32.0832099914550800,66,115,90,80,64,14769,2147765970,2147668370,2148581970,2147874870,2147600365,2147284251,2148458843,2147228123,1308,3,14,40749
1371423099,5808,169.6999969482422000,18.2520008087158200,34.8204994201660160,215.1024932861328000,224.7911987304687500,18.2604007720947270,31.7528495788574220,73,115,88,81,63,14764,2147785170,2147713883,2148675593,2147873810,2147599314,2147316077,2148497581,2147230418,1531,2,15,51987
1371423154,5809,165.4900054931640600,18.5991992950439450,34.8739013671875000,217.2855987548828000,214.4037933349609400,18.5776290893554700,31.4930896759033200,82,118,88,82,65,14754,2147814573,2147805632,2148876352,2147874514,2147609280,2147367990,2148581357,2147236214,1124,2,15,52974
1371423209,5807,161.3200073242187500,18.9179992675781250,34.9295005798339840,219.1414947509765600,203.2779998779297000,18.9174499511718750,31.2436008453369140,84,125,90,81,63,14745,2147846518,2147900717,2149056704,2147874413,2147621860,2147411602,2148651300,2147248978,640,3,14,7765
1371423264,5809,157.1999969482422000,19.0538005828857420,34.9611015319824200,220.6907958984375000,199.0740051269531200,19.0458698272705080,31.1058998107910160,85,120,90,81,63,14740,2147887122,2147997933,2149247817,2147878765,2147637714,2147463067,2148735222,2147250678,3077,2,15,27726
1371423343,5808,151.9600067138672000,19.3514995574951170,34.9924011230468750,221.2816009521484400,189.7306976318359400,19.3313407897949220,30.9493293762207030,94,132,88,82,62,14736,2147977782,2148228909,2149710665,2147884187,2147675986,2147587894,2148928722,2147267693,2285,3,15,3999
1371423410,5809,148.3600006103515600,19.5475997924804700,35.0176010131835940,221.7223968505859400,182.5877075195312500,19.5496501922607420,30.8304595947265620,106,120,91,83,64,14731,2148067702,2148408713,2150038994,2147887177,2147705536,2147674944,2149061622,2147276214,2293,2,15,55702
1371423489,5805,144.6699981689453000,19.8812007904052730,35.0583992004394500,222.6165008544922000,172.3061981201172000,19.8639793395996100,30.6474494934082030,113,128,93,84,63,14712,2148201645,2148701696,2150588050,2147893330,2147752621,2147792265,2149255405,2147288356,1779,2,15,15194
1371423580,5810,140.2500000000000000,20.1476001739501950,35.0990982055664060,224.7648010253906200,163.4828033447265600,20.1338596343994140,30.4216194152832030,126,133,88,83,61,14689,2148447744,2149217344,2151510637,2147903451,2147840100,2148010477,2149591753,2147320740,1335,2,15,20858
1371423661,5808,136.1600036621093800,20.2838993072509770,35.1071014404296900,226.6119995117187500,158.9080963134765600,20.2738399505615230,30.2686595916748050,137,135,92,83,63,14668,2148742573,2149776621,2152410962,2147914770,2147935186,2148215040,2149889179,2147343926,200,2,15,55624
1371423728,5810,132.4700012207031200,20.3680000305175780,35.1217002868652340,227.5507965087890600,155.5467071533203000,20.3767108917236330,30.1781005859375000,145,132,89,84,62,14664,2149041142,2150301376,2153210532,2147928000,2148032402,2148406427,2150161965,2147366592,2756,2,15,8326
1371423795,5809,128.4400024414062500,20.7115993499755860,35.1638984680175800,229.5847015380859400,145.4936981201172000,20.6845092773437500,29.9465007781982420,156,135,92,85,62,14658,2149476800,2151058276,2154335625,2147946112,2148173997,2148680859,2150549568,2147398555,2898,2,15,52679
1371423862,5807,124.4499969482421900,20.7805004119873050,35.1775016784668000,232.0072021484375000,141.9024963378906200,20.7945194244384770,29.7824497222900400,162,136,93,85,61,14654,2150259510,2152482816,2156530459,2147978203,2148439689,2149235136,2151329910,2147463899,2752,2,15,25200
1371423929,5810,120.4800033569336000,20.9153003692626950,35.1949996948242200,233.6667022705078000,138.2593994140625000,20.9061508178710940,29.6558799743652340,172,133,93,85,61,14617,2150895259,2153448219,2157765686,2148005092,2148655789,2149585865,2151741860,2147506395,2055,2,15,8954
1371423998,5807,116.5500030517578100,20.9958992004394530,35.2084007263183600,234.7319030761718800,135.5962982177734400,20.9877700805664060,29.5708293914794920,179,137,92,84,62,14603,2151613778,2154481709,2158993380,2148038235,2148896932,2149954477,2152147574,2147549778,1405,2,15,22685
1371424077,5809,112.4599990844726600,21.2096996307373050,35.2304000854492200,236.1829071044922000,129.2230987548828000,21.1831607818603500,29.4199695587158200,175,144,96,87,61,14601,2152691730,2156107776,2160950747,2148082752,2149263634,2150545956,2152824548,2147608996,816,2,15,20936
1371424168,5809,108.5800018310546900,21.2367000579834000,35.2088012695312500,238.6784973144531200,127.7118988037109400,21.2295093536376950,29.2844200134277340,152,130,94,85,61,14627,2154482166,2158823945,2164281133,2148157824,2149887424,2151555300,2154002505,2147730834,910,2,15,53450
1371424271,5808,104.8799972534179700,21.2660999298095700,35.1885986328125000,238.9463043212890600,126.0537033081054700,21.2803707122802730,29.2507305145263670,162,130,91,84,60,14620,2157135021,2162657472,2168708251,2148261531,2150805796,2153022290,2155644077,2147890870,1122,2,15,33949
1371424400,5808,101.0100021362304700,21.5296993255615230,35.1952018737793000,239.2185058593750000,118.3947982788086000,21.5153903961181640,29.1401100158691400,106,127,90,83,59,14665,2161440082,2168583954,2175461129,2148445330,2152399296,2155567396,2158403181,2148164617,132,2,15,39703
1371424467,5806,99.2200012207031200,21.6354999542236330,35.2006988525390600,239.8995971679687500,115.3895034790039000,21.6076602935791000,29.0703697204589840,101,122,88,81,60,14674,2162940480,2170371428,2177183104,2148522669,2153055433,2156515794,2159300553,2148257645,2859,2,15,5496
1371424546,5808,97.0599975585937500,21.7329006195068360,35.2167015075683600,240.3861999511718800,112.2064971923828100,21.7054100036621100,29.0075607299804700,95,119,91,85,59,14676,2165156608,2173127350,2180069366,2148636589,2153973174,2157831323,2160564187,2148392777,3178,2,16,16860
1371424613,5807,95.0899963378906200,21.8040008544921880,35.2243995666503900,240.8719024658203000,109.5501022338867200,21.7870101928710940,28.9516601562500000,93,120,89,84,59,14657,2168046226,2176891739,2184373476,2148796013,2155130724,2159542491,2162318994,2148567140,673,2,15,496
1371424688,5806,92.3199996948242200,21.8316993713378900,35.2268981933593750,241.4665985107422000,108.2233963012695300,21.8277702331542970,28.9075202941894530,88,121,94,83,61,14674,2171973284,2181393344,2188872722,2149032475,2156933878,2162029330,2164640365,2148810907,537,2,15,6778
1371424743,5810,89.5100021362304700,21.9885005950927730,35.2257995605468750,241.9317016601562500,104.2397994995117200,21.9501991271972660,28.8360195159912100,83,124,91,83,60,14673,2175284937,2185146212,2192371666,2149230418,2158450441,2163969051,2166280667,2148993618,61,2,15,14229
1371424798,5805,87.0000000000000000,22.0818004608154300,35.2263984680175800,242.6737976074218800,101.3022994995117200,22.0405101776123050,28.7651100158691400,84,125,90,83,59,14663,2179917568,2190567186,2197799350,2149512731,2160698971,2166990747,2169067282,2149288740,3152,2,16,12705
1371424853,5807,84.9599990844726600,22.3124008178710940,35.2667999267578100,243.0428009033203000,93.2971191406250000,22.2867698669433600,28.6475791931152340,84,123,91,84,57,14661,2183857462,2195139830,2202409581,2149772681,2162705124,2169597842,2171359926,2149537188,2347,2,16,3257
1371424920,5808,83.2799987792968800,22.3792991638183600,35.2793006896972660,244.4129943847656200,90.4922409057617200,22.3731098175048830,28.5508193969726560,82,122,92,84,58,14663,2187300041,2198846966,2205917430,2149984713,2164608283,2171980169,2173373129,2149744155,1651,2,15,10944
1371425011,5806,80.9300003051757800,22.6504001617431640,35.3046989440918000,245.1417999267578000,81.9657897949218800,22.6357402801513670,28.4114208221435550,76,122,89,84,60,14668,2193176073,2205029046,2211627849,2150426066,2168372242,2176470985,2176917412,2150116708,710,2,15,7762
1371425078,5810,78.8600006103515600,22.7021007537841800,35.3093986511230500,246.5700073242187500,79.9600906372070300,22.6975593566894530,28.3234405517578120,73,122,91,85,57,14669,2198531254,2210745682,2216860562,2150832768,2172162322,2180890925,2180266075,2150463414,3505,2,16,5289
1371425133,5806,76.9599990844726600,22.8521003723144530,35.3069000244140600,246.7837982177734400,75.0571670532226600,22.8487396240234380,28.2527103424072270,72,123,89,84,58,14654,2204075017,2216913883,2222958902,2151298422,2175607341,2184844827,2183241654,2150789120,3081,2,15,5636
1371425188,5808,75.1500015258789000,22.9116001129150400,35.3078002929687500,248.4405059814453000,73.1997680664062500,22.9060401916503900,28.1572704315185550,71,125,89,85,58,14647,2209101083,2221858267,2227440164,2151784576,2179299748,2189016640,2186383826,2151160676,2332,2,16,40400
1371425255,5810,72.7799987792968800,22.9174995422363280,35.2985992431640600,249.5917053222656200,72.8081512451171900,22.9181194305419920,28.1023902893066400,70,124,91,84,57,14651,2217336192,2230234889,2235172315,2152516681,2184906889,2195499922,2191479113,2151720356,1757,2,16,61107
1371425334,5804,69.0299987792968800,23.1187992095947270,35.3180999755859400,249.9067993164062500,65.8877182006836000,23.1317291259765620,28.0028190612792970,68,123,91,84,55,14640,2198242898,2203756909,2203657691,2150982957,2177344786,2183516745,2178932580,2150425179,1345,2,16,55863
1371425389,5809,65.9899978637695300,23.3099002838134770,35.3026008605957000,250.6701965332031200,60.1148109436035160,23.3100891113281250,27.8984794616699220,64,124,92,84,57,14647,2188759414,2191514066,2190149449,2150351305,2172622089,2176394953,2171813504,2149708114,1199,2,16,11073
1371425444,5810,63.1599998474121100,23.3335990905761720,35.2374992370605500,251.0233001708984400,57.2350997924804700,23.3991107940673830,27.8478507995605470,64,122,92,85,58,14648,2255904475,2269533202,2273253760,2157761536,2213112320,2226448841,2214930185,2154654189,760,1,16,12865
1371425499,5806,60.7999992370605500,23.6471996307373050,35.2789001464843750,250.9291992187500000,49.7824096679687500,23.6296596527099600,27.7598304748535160,65,122,90,83,55,14639,2241597787,2251295040,2252313380,2156245056,2205699730,2215219017,2203998272,2153504795,281,1,15,40924
1371425554,5806,59.0699996948242200,23.6557998657226560,35.2727012634277340,251.6273956298828000,48.7848701477050800,23.6605396270751950,27.7176704406738280,62,121,91,85,58,14612,2265064091,2278164443,2281136045,2159596160,2221859986,2234048365,2219496338,2155438363,74,2,16,4966
1371425623,5806,57.3600006103515600,23.8054008483886720,35.2737998962402340,251.2308959960937500,45.8831214904785160,23.7503890991210940,27.6988601684570300,60,121,90,85,58,14638,2267761225,2278692754,2279843017,2159943826,2229111414,2241330496,2224567917,2156004123,676,1,16,45637
1371425750,5808,55.7999992370605500,23.8283996582031250,35.2771987915039060,251.6087951660156200,43.1137504577636700,23.8361797332763670,27.6486797332763670,60,120,92,85,58,14633,2283193508,2295291684,2297035949,2162428086,2239720411,2251906477,2231428617,2156986422,807,2,16,749
1371425948,5808,52.8100013732910160,23.9025001525878900,35.2706985473632800,251.6479949951172000,40.8250999450683600,23.9071102142334000,27.6190891265869140,58,122,92,85,56,14629,2204136100,2202464521,2197148077,2152257325,2192427894,2193137627,2180886016,2150835373,81,2,15,39718
1371426003,5810,50.1800003051757800,23.8924999237060550,35.2420005798339840,251.4734954833984400,40.6829910278320300,23.9115104675292970,27.6245994567871100,59,122,91,84,56,14634,2324565613,2334848118,2334392740,2171687204,2278697801,2289234130,2256447515,2160710500,3568,2,16,48352
1371426058,5809,47.0800018310546900,24.1252002716064450,35.2340011596679700,250.5256958007812500,34.1274299621582000,24.1148204803466800,27.5843391418457030,56,119,91,84,58,14635,2337660489,2345396617,2343993691,2175723245,2295379026,2305467373,2267700187,2162683318,907,1,16,61934
1371426113,5807,44.0099983215332000,24.3787002563476560,35.2232017517089840,249.7850036621093800,26.3938598632812500,24.3549308776855470,27.5211105346679700,56,125,89,86,56,14645,2341220022,2348400768,2347608521,2179918921,2297991652,2306130861,2267280045,2163483620,987,2,16,17914
1371426168,5805,41.4300003051757800,24.4916000366210940,35.2190017700195300,249.6078033447265600,22.8625907897949220,24.4646701812744140,27.4855403900146500,55,120,91,84,59,14630,2248877494,2246580726,2240851428,2162666075,2234230500,2234546916,2210501915,2155506624,743,2,16,7301
1371426223,5812,39.6599998474121100,24.5165996551513670,35.2223014831543000,249.4309997558593800,21.9957504272460940,24.4916191101074220,27.4823799133300780,56,120,92,83,57,14560,2205510838,2200175222,2193394806,2154309558,2195775698,2192005604,2177644598,2151110253,1159,2,16,38800
1371426280,5810,38.4599990844726560,24.5151004791259770,35.2305984497070300,249.3981933593750000,21.3496093750000000,24.5117092132568360,27.4759998321533200,57,122,92,88,58,14641,2214770752,2209297289,2202161353,2156243328,2205096082,2201493083,2184439661,2152069385,1391,2,16,4558
1371426634,5806,35.8100013732910160,24.5830001831054700,35.2243003845214840,249.2194976806640600,15.7558898925781250,24.6857299804687500,27.4151191711425780,55,127,92,85,57,14639,2396204105,2400736557,2398598217,2203336960,2365422546,2369185234,2310578825,2172559030,1892,2,16,59591
1371426689,5808,33.8600006103515600,24.9102001190185550,35.2111015319824200,247.7514953613281200,8.8158845901489260,24.9018802642822270,27.3931407928466800,55,121,91,86,58,14637,2381865993,2383402624,2380332434,2203074971,2361629494,2362273508,2303379830,2172020544,1734,2,16,10873
1371426744,5808,32.3499984741210940,24.9691009521484380,35.2151985168457000,246.9163055419922000,6.8984990119934080,24.9616394042968750,27.4056396484375000,54,123,92,85,58,14640,2242905782,2234456045,2225284416,2164366701,2243363117,2235459931,2206318464,2155680932,1336,2,16,16305
1371426847,5807,30.8199996948242200,25.6830005645751950,35.2843017578125000,242.8144989013672000,-13.5442399978637700,25.6001796722412100,27.3337192535400400,55,122,91,84,60,14633,2411644836,2412368667,2408928320,2214431460,2402845430,2401399606,2330995200,2177543625,1600,2,15,32843
1371427296,5808,28.2399997711181640,26.3045005798339840,35.3333015441894500,232.3628997802734400,-36.7146606445312500,26.3270797729492200,27.5171203613281250,51,118,90,85,52,14648,2435352694,2437640877,2438035995,2231432365,2443652699,2434427108,2349850889,2182047661,1176,2,15,26206
1371427363,5807,26.0200004577636720,26.3097000122070300,35.3330993652343750,232.1894989013672000,-36.8798789978027340,26.3322792053222660,27.5230293273925780,52,119,88,82,56,14644,2461962002,2465678400,2468754441,2255807579,2472683867,2458587300,2366071140,2187869970,922,1,16,1574
